Regional Weather Roundup
Issued by NWS

Home | Current Version | Previous Version | Graphics & Text | Print | Product List | Glossary On
Versions: 1 2 3 4 5 6 7 8 9 10 11 12 13 14 15 16 17 18 19 20 21 22 23 24 25 26 27 28 29 30 31 32 33 34 35 36 37 38 39 40 41 42 43 44 45 46 47 48 49 50
000
ASUS45 KCYS 100010
RWRWY

WYOMING REGIONAL WEATHER ROUNDUP
NATIONAL WEATHER SERVICE CHEYENNE WY
600 PM MDT WED JUL 09 2014

NOTE:  "FAIR" INDICATES FEW OR NO CLOUDS BELOW 12,000 FEET
WITH NO SIGNIFICANT WEATHER AND/OR OBSTRUCTIONS TO VISIBILITY.

WYZ001-100100-
YELLOWSTONE NATIONAL PARK

CITY           SKY/WX    TMP DP  RH WIND       PRES   REMARKS
LK YELLOWSTONE   N/A     77  39  25 VRB5      30.20F
6HR MIN TEMP:  69; 6HR MAX TEMP:  79;

W YELLOWSTONE  NOT AVBL

$$
WYZ002>013-054>058-071-098>099-100100-
NORTHERN WYOMING

CITY           SKY/WX    TMP DP  RH WIND       PRES   REMARKS
JACKSON        SUNNY     82  34  17 CALM      30.07F
CODY           NOT AVBL
GREYBULL       MOSUNNY   96  38  13 VRB5      29.82F HX  91
6HR MIN TEMP:  84; 6HR MAX TEMP:  97;

WORLAND        PTSUNNY   91  54  28 N8        29.82F
6HR MIN TEMP:  84; 6HR MAX TEMP:  96;

SHERIDAN       PTSUNNY   89  50  26 E10       29.88F
6HR MIN TEMP:  83; 6HR MAX TEMP:  91;

BUFFALO        PTSUNNY   87  49  26 SE6       29.97F
6HR MIN TEMP:  80; 6HR MAX TEMP:  88;

GILLETTE       SUNNY     86  49  27 SE7       29.94F
6HR MIN TEMP:  79; 6HR MAX TEMP:  88;

HULETT         FAIR      79  55  44 MISG      29.99
NEWCASTLE      FAIR      84  50  30 S15       29.96

$$
WYZ014>020-022>026-101>103-100100-
CENTRAL WYOMING

CITY           SKY/WX    TMP DP  RH WIND       PRES   REMARKS
BIG PINEY      PTSUNNY   87  40  19 NW13      30.12F
6HR MIN TEMP:  79; 6HR MAX TEMP:  89; 6HR PCP: TRACE;

PINEDALE       MOCLDY    84  37  18 NW12G21   30.13S
DUBOIS         FAIR      82  27  13 NW16G26   30.11S
LANDER         SUNNY     96  27   8 NW6       29.91F HX  90
6HR MIN TEMP:  84; 6HR MAX TEMP:  98;

RIVERTON       SUNNY     95  29   9 SE9       29.92F
6HR MIN TEMP:  81; 6HR MAX TEMP:  95;

CASPER         MOSUNNY   93  36  13 VRB6      29.95F
6HR MIN TEMP:  82; 6HR MAX TEMP:  94;

DOUGLAS        MOSUNNY   87  55  33 E17G24    29.96F
6HR MIN TEMP:  81; 6HR MAX TEMP:  93;


$$
WYZ021-027>030-104>119-100100-
SOUTHERN WYOMING

CITY           SKY/WX    TMP DP  RH WIND       PRES   REMARKS
EVANSTON       MOSUNNY   86  42  21 SW16      30.16S
6HR MIN TEMP:  81; 6HR MAX TEMP:  87;

KEMMERER       MOCLDY   N/A N/A N/A CALM      30.16F
FORT BRIDGER   CLOUDY    73  48  40 S17G29    30.18F
ROCK SPRINGS   PTSUNNY   85  37  18 W25       30.08S
6HR MIN TEMP:  85; 6HR MAX TEMP:  93;

DIXON          FAIR      89  32  13 SW10      30.11S
RAWLINS        SUNNY     90  20   7 W10G20    30.06F
6HR MIN TEMP:  85; 6HR MAX TEMP:  93;

SARATOGA       FAIR      86  32  14 W14G20    30.10F
LARAMIE        MOSUNNY   81  48  31 SE12      30.12F
6HR MIN TEMP:  79; 6HR MAX TEMP:  87;

CHEYENNE       MOSUNNY   85  47  26 S13G21    30.07F
6HR MIN TEMP:  79; 6HR MAX TEMP:  87; 6HR PCP: TRACE;

TORRINGTON     SUNNY     91  51  25 SE9       29.90F
6HR MIN TEMP:  78; 6HR MAX TEMP:  94;


$$


USA.gov is the U.S. government's official web portal to all federal, state and local government web resources and services.